TimeEST,TemperatureF,Dew PointF,Humidity,Sea Level PressureIn,VisibilityMPH,Wind Direction,Wind SpeedMPH,Gust SpeedMPH,PrecipitationIn,Events,Conditions,WindDirDegrees,DateUTC
12:15 AM,33.8,32.0,93,30.38,10.0,Calm,Calm,-,N/A,,Clear,0,2013-01-08 05:15:00
12:35 AM,35.6,33.8,93,30.38,10.0,Calm,Calm,-,N/A,,Clear,0,2013-01-08 05:35:00
12:55 AM,35.6,33.8,93,30.37,10.0,Calm,Calm,-,N/A,,Clear,0,2013-01-08 05:55:00
1:15 AM,37.4,33.8,87,30.36,10.0,NE,5.8,-,N/A,,Clear,40,2013-01-08 06:15:00
1:35 AM,39.2,33.8,81,30.35,10.0,NE,5.8,-,N/A,,Clear,40,2013-01-08 06:35:00
1:55 AM,39.2,33.8,81,30.35,10.0,NNE,5.8,-,N/A,,Clear,30,2013-01-08 06:55:00
2:15 AM,39.2,33.8,81,30.35,10.0,NE,5.8,-,N/A,,Clear,40,2013-01-08 07:15:00
2:35 AM,39.2,33.8,81,30.35,10.0,NE,4.6,-,N/A,,Clear,40,2013-01-08 07:35:00
2:55 AM,39.2,33.8,81,30.35,10.0,NE,4.6,-,N/A,,Clear,40,2013-01-08 07:55:00
3:15 AM,39.2,33.8,81,30.34,10.0,NE,4.6,-,N/A,,Clear,40,2013-01-08 08:15:00
3:35 AM,39.2,33.8,81,30.34,10.0,NNE,3.5,-,N/A,,Clear,20,2013-01-08 08:35:00
3:55 AM,39.2,35.6,87,30.35,10.0,NNE,3.5,-,N/A,,Clear,20,2013-01-08 08:55:00
4:15 AM,39.2,35.6,87,30.34,10.0,NNE,3.5,-,N/A,,Scattered Clouds,30,2013-01-08 09:15:00
4:35 AM,39.2,35.6,87,30.34,10.0,NE,5.8,-,N/A,,Overcast,40,2013-01-08 09:35:00
4:55 AM,41.0,35.6,81,30.33,10.0,NNE,6.9,-,N/A,,Overcast,30,2013-01-08 09:55:00
5:15 AM,42.8,35.6,76,30.33,10.0,NE,6.9,-,N/A,,Overcast,40,2013-01-08 10:15:00
5:35 AM,42.8,35.6,76,30.34,10.0,NE,5.8,-,N/A,,Overcast,40,2013-01-08 10:35:00
5:55 AM,42.8,35.6,76,30.34,10.0,NE,6.9,-,N/A,,Mostly Cloudy,40,2013-01-08 10:55:00
6:15 AM,42.8,37.4,81,30.35,10.0,NNE,6.9,-,N/A,,Overcast,30,2013-01-08 11:15:00
6:35 AM,44.6,37.4,76,30.35,10.0,NNE,6.9,-,N/A,,Overcast,30,2013-01-08 11:35:00
7:15 AM,44.6,37.4,76,30.37,10.0,NE,5.8,-,N/A,,Mostly Cloudy,40,2013-01-08 12:15:00
7:35 AM,44.6,35.6,71,30.37,10.0,NE,5.8,-,N/A,,Scattered Clouds,50,2013-01-08 12:35:00
7:55 AM,44.6,35.6,71,30.37,10.0,NE,5.8,-,N/A,,Partly Cloudy,40,2013-01-08 12:55:00
8:15 AM,44.6,35.6,71,30.37,10.0,NE,5.8,-,N/A,,Partly Cloudy,50,2013-01-08 13:15:00
8:35 AM,44.6,35.6,71,30.38,10.0,NE,6.9,-,N/A,,Clear,50,2013-01-08 13:35:00
8:55 AM,46.4,35.6,66,30.38,10.0,NE,8.1,-,N/A,,Partly Cloudy,50,2013-01-08 13:55:00
9:15 AM,46.4,35.6,66,30.38,10.0,NE,8.1,-,N/A,,Clear,50,2013-01-08 14:15:00
9:35 AM,48.2,37.4,66,30.40,10.0,ENE,6.9,-,N/A,,Mostly Cloudy,60,2013-01-08 14:35:00
9:55 AM,50.0,37.4,62,30.40,10.0,NE,6.9,-,N/A,,Mostly Cloudy,50,2013-01-08 14:55:00
10:15 AM,51.8,37.4,58,30.41,10.0,NE,9.2,-,N/A,,Overcast,50,2013-01-08 15:15:00
10:55 AM,51.8,37.4,58,30.41,10.0,NE,8.1,-,N/A,,Overcast,50,2013-01-08 15:55:00
11:15 AM,53.6,39.2,58,30.41,10.0,North,3.5,-,N/A,,Overcast,10,2013-01-08 16:15:00
11:35 AM,53.6,39.2,58,30.40,10.0,NNE,4.6,-,N/A,,Overcast,30,2013-01-08 16:35:00
12:15 PM,55.4,39.2,54,30.38,10.0,NE,5.8,-,N/A,,Mostly Cloudy,50,2013-01-08 17:15:00
12:35 PM,55.4,39.2,54,30.38,10.0,NNE,4.6,-,N/A,,Overcast,30,2013-01-08 17:35:00
12:55 PM,55.4,41.0,58,30.37,10.0,NNE,5.8,-,N/A,,Overcast,20,2013-01-08 17:55:00
1:15 PM,55.4,41.0,58,30.36,10.0,North,4.6,-,N/A,,Overcast,360,2013-01-08 18:15:00
1:35 PM,55.4,42.8,63,30.35,10.0,North,3.5,-,N/A,,Mostly Cloudy,10,2013-01-08 18:35:00
1:55 PM,57.2,42.8,59,30.34,10.0,NNE,6.9,-,N/A,,Mostly Cloudy,30,2013-01-08 18:55:00
2:15 PM,57.2,42.8,59,30.34,10.0,North,4.6,-,N/A,,Scattered Clouds,10,2013-01-08 19:15:00
2:35 PM,59.0,42.8,55,30.34,10.0,Calm,Calm,-,N/A,,Mostly Cloudy,0,2013-01-08 19:35:00
3:15 PM,60.8,44.6,55,30.33,10.0,Calm,Calm,-,N/A,,Mostly Cloudy,0,2013-01-08 20:15:00
3:35 PM,60.8,44.6,55,30.33,10.0,Calm,Calm,-,N/A,,Overcast,0,2013-01-08 20:35:00
4:15 PM,60.8,44.6,55,30.33,10.0,Calm,Calm,-,N/A,,Overcast,0,2013-01-08 21:15:00
4:35 PM,60.8,44.6,55,30.33,10.0,Calm,Calm,-,N/A,,Overcast,0,2013-01-08 21:35:00
4:55 PM,60.8,44.6,55,30.32,10.0,Calm,Calm,-,N/A,,Mostly Cloudy,0,2013-01-08 21:55:00
5:15 PM,60.8,46.4,59,30.32,10.0,Calm,Calm,-,N/A,,Overcast,0,2013-01-08 22:15:00
5:35 PM,59.0,46.4,63,30.33,10.0,Calm,Calm,-,N/A,,Overcast,0,2013-01-08 22:35:00
5:55 PM,57.2,46.4,67,30.33,10.0,Calm,Calm,-,N/A,,Overcast,0,2013-01-08 22:55:00
6:15 PM,57.2,46.4,67,30.34,10.0,Calm,Calm,-,N/A,,Overcast,0,2013-01-08 23:15:00
6:35 PM,57.2,46.4,67,30.34,10.0,Calm,Calm,-,N/A,,Overcast,0,2013-01-08 23:35:00
6:55 PM,57.2,46.4,67,30.35,10.0,NNE,5.8,-,N/A,,Overcast,30,2013-01-08 23:55:00
7:15 PM,57.2,46.4,67,30.36,10.0,North,3.5,-,N/A,,Overcast,350,2013-01-09 00:15:00
7:55 PM,55.4,44.6,67,30.37,10.0,North,3.5,-,N/A,,Overcast,10,2013-01-09 00:55:00
8:15 PM,55.4,44.6,67,30.37,10.0,North,3.5,-,N/A,,Overcast,10,2013-01-09 01:15:00
8:55 PM,55.4,44.6,67,30.36,10.0,NE,6.9,-,N/A,,Overcast,40,2013-01-09 01:55:00
9:15 PM,55.4,44.6,67,30.36,10.0,NE,5.8,-,N/A,,Scattered Clouds,50,2013-01-09 02:15:00
9:35 PM,53.6,44.6,72,30.36,10.0,NE,5.8,-,N/A,,Clear,40,2013-01-09 02:35:00
9:55 PM,53.6,44.6,72,30.36,10.0,Calm,Calm,-,N/A,,Clear,0,2013-01-09 02:55:00
10:15 PM,53.6,44.6,72,30.36,10.0,Calm,Calm,-,N/A,,Clear,0,2013-01-09 03:15:00
11:15 PM,51.8,44.6,76,30.37,10.0,North,5.8,-,N/A,,Clear,350,2013-01-09 04:15:00
11:35 PM,51.8,44.6,76,30.37,10.0,North,5.8,-,N/A,,Clear,360,2013-01-09 04:35:00
11:55 PM,51.8,44.6,76,30.37,10.0,NNE,4.6,-,N/A,,Clear,20,2013-01-09 04:55:00